• Em Portugal
  • Lista de países
  • Para 7 dias
  • Temperatura da água
  • Mapas de satélite
  • Mapa do tempo
  • Widgets de tempo
  • user-avatar
    Iniciar Sessão

    Previsão horária em Sagaleipie

    Hoje, 24 Fevereiro, Sábado

    Tempo Temperatura Precipitação Vento Pressão Humidade
    00:00 +24°C° 0,1 mm 1 m/s 721 mmHg 92%
    01:00 +24°C° 0,1 mm 1 m/s 721 mmHg 92%
    02:00 +23°C° 0,1 mm 1 m/s 721 mmHg 92%
    03:00 +23°C° 0 mm 1 m/s 721 mmHg 92%
    04:00 +22°C° 0 mm 1 m/s 721 mmHg 92%
    05:00 +20°C° 0 mm 0 m/s 721 mmHg 92%
    06:00 +23°C° 0 mm 1 m/s 722 mmHg 84%
    07:00 +25°C° 0 mm 1 m/s 722 mmHg 75%
    08:00 +26°C° 0 mm 1 m/s 723 mmHg 67%
    09:00 +28°C° 0,1 mm 1 m/s 723 mmHg 58%
    10:00 +30°C° 0,1 mm 1 m/s 723 mmHg 49%
    11:00 +32°C° 0,1 mm 1 m/s 723 mmHg 40%
    12:00 +33°C° 0 mm 1 m/s 722 mmHg 39%
    13:00 +34°C° 0 mm 1 m/s 722 mmHg 38%
    14:00 +35°C° 0 mm 1 m/s 721 mmHg 36%
    15:00 +33°C° 0 mm 1 m/s 721 mmHg 40%
    16:00 +32°C° 0 mm 1 m/s 721 mmHg 45%
    17:00 +31°C° 0 mm 1 m/s 721 mmHg 49%
    18:00 +30°C° 0 mm 1 m/s 721 mmHg 54%
    19:00 +28°C° 0 mm 1 m/s 722 mmHg 59%
    20:00 +26°C° 0 mm 1 m/s 722 mmHg 65%
    21:00 +26°C° 0 mm 1 m/s 722 mmHg 69%
    22:00 +25°C° 0 mm 1 m/s 722 mmHg 72%
    23:00 +23°C° 0 mm 0 m/s 723 mmHg 76%

    Amanhã, 25 Fevereiro, Domingo

    Tempo Temperatura Precipitação Vento Pressão Humidade
    00:00 +22°C° 0 mm 0 m/s 722 mmHg 79%
    01:00 +24°C° 0 mm 1 m/s 722 mmHg 83%
    02:00 +24°C° 0 mm 1 m/s 722 mmHg 86%
    03:00 +21°C° 0 mm 0 m/s 722 mmHg 88%
    04:00 +21°C° 0 mm 0 m/s 722 mmHg 91%
    05:00 +21°C° 0 mm 0 m/s 722 mmHg 93%
    06:00 +22°C° 0 mm 0 m/s 723 mmHg 87%
    07:00 +25°C° 0 mm 1 m/s 723 mmHg 81%
    08:00 +26°C° 0 mm 1 m/s 724 mmHg 74%
    09:00 +29°C° 0 mm 1 m/s 724 mmHg 64%
    10:00 +31°C° 0 mm 1 m/s 724 mmHg 54%
    11:00 +34°C° 0 mm 1 m/s 724 mmHg 44%
    12:00 +35°C° 0 mm 1 m/s 723 mmHg 40%
    13:00 +34°C° 0 mm 0 m/s 722 mmHg 37%
    14:00 +35°C° 0 mm 0 m/s 721 mmHg 33%
    15:00 +33°C° 0 mm 0 m/s 721 mmHg 38%
    16:00 +33°C° 0 mm 1 m/s 721 mmHg 44%
    17:00 +32°C° 0 mm 1 m/s 721 mmHg 49%
    18:00 +30°C° 0 mm 1 m/s 721 mmHg 54%
    19:00 +29°C° 0 mm 1 m/s 722 mmHg 58%
    20:00 +28°C° 0 mm 1 m/s 722 mmHg 63%
    21:00 +27°C° 0 mm 1 m/s 722 mmHg 67%
    22:00 +26°C° 0 mm 1 m/s 722 mmHg 71%
    23:00 +26°C° 0 mm 1 m/s 722 mmHg 76%

    Depois de amanhã, 26 Fevereiro, Segunda-feira

    Tempo Temperatura Precipitação Vento Pressão Humidade
    00:00 +25°C° 0 mm 1 m/s 722 mmHg 80%
    01:00 +25°C° 0 mm 1 m/s 721 mmHg 84%
    02:00 +24°C° 0 mm 1 m/s 721 mmHg 88%
    03:00 +22°C° 0 mm 0 m/s 721 mmHg 89%
    04:00 +21°C° 0 mm 0 m/s 721 mmHg 91%
    05:00 +21°C° 0 mm 0 m/s 721 mmHg 93%
    06:00 +23°C° 0,1 mm 0 m/s 722 mmHg 84%
    07:00 +25°C° 0,1 mm 0 m/s 723 mmHg 76%
    08:00 +26°C° 0,1 mm 0 m/s 723 mmHg 68%
    09:00 +29°C° 0,1 mm 0 m/s 723 mmHg 58%
    10:00 +32°C° 0,1 mm 0 m/s 723 mmHg 47%
    11:00 +35°C° 0,1 mm 0 m/s 723 mmHg 37%
    12:00 +35°C° 0 mm 0 m/s 722 mmHg 37%
    13:00 +34°C° 0 mm 0 m/s 721 mmHg 37%
    14:00 +34°C° 0 mm 0 m/s 720 mmHg 37%
    15:00 +33°C° 0 mm 0 m/s 720 mmHg 41%
    16:00 +32°C° 0 mm 0 m/s 720 mmHg 44%
    17:00 +33°C° 0 mm 1 m/s 720 mmHg 47%
    18:00 +31°C° 0,6 mm 1 m/s 721 mmHg 56%
    19:00 +29°C° 0,6 mm 1 m/s 721 mmHg 65%
    20:00 +27°C° 0,6 mm 1 m/s 722 mmHg 74%
    21:00 +27°C° 1,6 mm 1 m/s 722 mmHg 80%
    22:00 +26°C° 1,6 mm 1 m/s 722 mmHg 86%
    23:00 +25°C° 1,6 mm 1 m/s 723 mmHg 92%

    27 Fevereiro, Terça-feira

    Tempo Temperatura Precipitação Vento Pressão Humidade
    00:00 +25°C° 0,2 mm 1 m/s 722 mmHg 93%
    01:00 +24°C° 0,2 mm 1 m/s 722 mmHg 95%
    02:00 +24°C° 0,2 mm 1 m/s 721 mmHg 96%
    03:00 +24°C° 0,3 mm 1 m/s 721 mmHg 96%
    04:00 +24°C° 0,3 mm 1 m/s 722 mmHg 97%
    05:00 +23°C° 0,3 mm 1 m/s 722 mmHg 97%
    06:00 +24°C° 0,2 mm 1 m/s 722 mmHg 93%
    07:00 +25°C° 0,2 mm 1 m/s 723 mmHg 89%
    08:00 +26°C° 0,2 mm 1 m/s 723 mmHg 85%
    09:00 +28°C° 0 mm 1 m/s 723 mmHg 75%
    10:00 +30°C° 0 mm 1 m/s 723 mmHg 65%
    11:00 +32°C° 0 mm 1 m/s 723 mmHg 55%
    12:00 +33°C° 0,1 mm 1 m/s 722 mmHg 52%
    13:00 +34°C° 0,1 mm 1 m/s 721 mmHg 50%
    14:00 +34°C° 0,1 mm 1 m/s 721 mmHg 47%
    15:00 +33°C° 0,5 mm 1 m/s 721 mmHg 51%
    16:00 +32°C° 0,5 mm 1 m/s 721 mmHg 55%
    17:00 +32°C° 0,5 mm 1 m/s 721 mmHg 58%
    18:00 +30°C° 0,6 mm 1 m/s 722 mmHg 68%
    19:00 +28°C° 0,6 mm 1 m/s 722 mmHg 78%
    20:00 +26°C° 0,6 mm 1 m/s 723 mmHg 88%
    21:00 +25°C° 0,4 mm 1 m/s 723 mmHg 91%
    22:00 +25°C° 0,4 mm 1 m/s 723 mmHg 94%
    23:00 +24°C° 0,4 mm 1 m/s 723 mmHg 96%

    28 Fevereiro, Quarta-feira

    Tempo Temperatura Precipitação Vento Pressão Humidade
    00:00 +24°C° 0,7 mm 1 m/s 723 mmHg 97%
    01:00 +24°C° 0,7 mm 1 m/s 722 mmHg 97%
    02:00 +24°C° 0,7 mm 1 m/s 722 mmHg 98%
    03:00 +24°C° 0 mm 1 m/s 722 mmHg 98%
    04:00 +22°C° 0 mm 0 m/s 722 mmHg 98%
    05:00 +21°C° 0 mm 0 m/s 722 mmHg 98%
    06:00 +24°C° 0 mm 1 m/s 723 mmHg 93%
    07:00 +25°C° 0 mm 1 m/s 723 mmHg 88%
    08:00 +27°C° 0 mm 1 m/s 724 mmHg 82%
    09:00 +29°C° 0,1 mm 1 m/s 724 mmHg 70%
    10:00 +32°C° 0,1 mm 1 m/s 724 mmHg 58%
    11:00 +35°C° 0,1 mm 1 m/s 723 mmHg 46%
    12:00 +35°C° 0 mm 1 m/s 723 mmHg 45%
    13:00 +35°C° 0 mm 1 m/s 722 mmHg 43%
    14:00 +33°C° 0 mm 0 m/s 721 mmHg 42%
    15:00 +32°C° 0 mm 0 m/s 721 mmHg 46%
    16:00 +31°C° 0 mm 0 m/s 721 mmHg 51%
    17:00 +30°C° 0 mm 0 m/s 721 mmHg 56%
    18:00 +30°C° 0,5 mm 1 m/s 721 mmHg 64%
    19:00 +28°C° 0,5 mm 1 m/s 722 mmHg 72%
    20:00 +27°C° 0,5 mm 1 m/s 722 mmHg 80%
    21:00 +26°C° 0,4 mm 1 m/s 723 mmHg 85%
    22:00 +25°C° 0,4 mm 1 m/s 723 mmHg 89%
    23:00 +25°C° 0,4 mm 1 m/s 723 mmHg 94%

    1 Março, Quinta-feira

    Tempo Temperatura Precipitação Vento Pressão Humidade
    00:00 +25°C° 2 mm 1 m/s 723 mmHg 95%
    01:00 +24°C° 2 mm 1 m/s 722 mmHg 96%
    02:00 +24°C° 2 mm 2 m/s 722 mmHg 96%
    03:00 +24°C° 0,9 mm 1 m/s 722 mmHg 97%
    04:00 +24°C° 0,9 mm 1 m/s 722 mmHg 97%
    05:00 +24°C° 0,9 mm 1 m/s 723 mmHg 97%
    06:00 +24°C° 0,1 mm 1 m/s 723 mmHg 93%
    07:00 +25°C° 0,1 mm 1 m/s 723 mmHg 89%
    08:00 +26°C° 0,1 mm 1 m/s 724 mmHg 85%
    09:00 +29°C° 0,1 mm 1 m/s 724 mmHg 74%
    10:00 +31°C° 0,1 mm 1 m/s 724 mmHg 63%
    11:00 +34°C° 0,1 mm 1 m/s 723 mmHg 52%
    12:00 +33°C° 0,8 mm 1 m/s 723 mmHg 55%
    13:00 +33°C° 0,8 mm 1 m/s 722 mmHg 58%
    14:00 +33°C° 0,8 mm 1 m/s 721 mmHg 61%
    15:00 +31°C° 1,3 mm 1 m/s 721 mmHg 70%
    16:00 +29°C° 1,3 mm 1 m/s 721 mmHg 78%
    17:00 +27°C° 1,3 mm 1 m/s 722 mmHg 87%
    18:00 +27°C° 0,3 mm 1 m/s 722 mmHg 89%
    19:00 +26°C° 0,3 mm 1 m/s 722 mmHg 92%
    20:00 +25°C° 0,3 mm 1 m/s 723 mmHg 95%
    21:00 +24°C° 0 mm 1 m/s 723 mmHg 95%
    22:00 +24°C° 0 mm 1 m/s 723 mmHg 96%
    23:00 +24°C° 0 mm 1 m/s 723 mmHg 97%
    Mostrar mais